Regional Weather Roundup
Issued by NWS

Home | Current Version | Previous Version | Text Only | Print | Product List | Glossary On
Versions: 1 2 3 4 5 6 7 8 9 10 11 12 13 14 15 16 17 18 19 20 21 22 23 24 25 26 27 28 29 30 31 32 33 34 35 36 37 38 39 40 41 42 43 44 45 46 47 48 49 50
000
ASUS43 KMPX 191810
RWRMN
WEATHER ROUNDUP FOR MINNESOTA
NATIONAL WEATHER SERVICE TWIN CITIES/CHANHASSEN MN
100 PM CDT THU OCT 19 2017


NOTE: "FAIR" INDICATES FEW OR NO CLOUDS BELOW 12,000 FEET WITH NO
SIGNIFICANT WEATHER AND/OR OBSTRUCTIONS TO VISIBILITY. N/A MEANS
CURRENT SKY AND/OR WEATHER CONDITIONS ARE NOT AVAILABLE.

MNZ060>063-068>070-191900-
   Twin Cities Metro

CITY           SKY/WX    TMP DP  RH WIND       PRES   REMARKS
TWIN CITIES    FAIR      67  34  29 S13       30.04F
6HR MIN TEMP:  43; 6HR MAX TEMP:  67;

ST PAUL        FAIR      66  40  38 SE9       30.05F
CRYSTAL        FAIR      66  33  29 S9        30.02F
BLAINE         PTSUNNY   68  32  26 S14G21    30.02F
LAKEVILLE      FAIR      70  34  26 S13       30.04F
EDEN PRAIRIE   FAIR      69  33  26 S15G22    30.02F
6HR MIN TEMP:  41; 6HR MAX TEMP:  69;

SOUTH ST PAUL  FAIR      68  33  28 S10       30.04F
LAKE ELMO      FAIR      68  36  30 S13       30.05F
$$
MNZ001>005-007-008-013>017-022>024-027-028-191900-
   Northwest Minnesota

CITY           SKY/WX    TMP DP  RH WIND       PRES   REMARKS
BEMIDJI        FAIR      66  34  30 S13G22    29.87F
HALLOCK        FAIR      61  28  29 S18       29.77F
ROSEAU         FAIR      64  32  29 S15       29.81F
WARROAD        FAIR      63  34  34 S9        29.83F
THIEF RVR FALL FAIR      64  32  30 S20G25    29.83F
CROOKSTON      FAIR      63  34  34 S17       29.82F
FOSSTON        FAIR      66  32  28 SW20G25   29.85F
DETROIT LAKES  FAIR      66  36  32 SW18      29.89F
MOORHEAD       FAIR      66  36  32 S16G26    29.84F
PARK RAPIDS    FAIR      67  37  33 S18G24    29.91F
MAHNOMEN       FAIR      67  36  31 SW22G29   29.85F
$$
MNZ006-009>011-018-025>026-191900-
   North Central Minnesota

CITY           SKY/WX    TMP DP  RH WIND       PRES   REMARKS
BAUDETTE       FAIR      62  29  28 S10       29.86F
FLAG ISLAND    FAIR      48  36  61 S10       29.83F
INTL FALLS     FAIR      61  23  23 SW10      29.90F
6HR MIN TEMP:  36; 6HR MAX TEMP:  61;

WASKISH        FAIR      66  30  26 S6        29.87F
BIG FORK       FAIR      64  30  27 S7        29.92F
LONGVILLE      FAIR      64  30  27 S9G24     29.93F
GRAND RAPIDS   FAIR      63  30  28 S9        29.96F
CRANE LAKE     FAIR      57  19  23 S9        29.96S
ORR            FAIR      63  19  19 SW7       29.92F
COOK           FAIR      63  27  25 S5        29.95F
WALKER         FAIR      65  33  30 S15       29.90F
$$
MNZ012-019>021-037-191900-
   Northeast Minnesota

CITY           SKY/WX    TMP DP  RH WIND       PRES   REMARKS
DULUTH         FAIR      62  31  31 SW14      29.99F
6HR MIN TEMP:  39; 6HR MAX TEMP:  62;

ELY            FAIR      59  21  23 SW14G20   29.96F
HIBBING        FAIR      61  28  28 SW8       29.96F
EVELETH        FAIR      63  12  13 SW7       29.98F
DULUTH HARBOR  FAIR      64  30  27 SW10      29.99F
TWO HARBORS    FAIR      64  39  39 S7        29.97F
SILVER BAY     FAIR      64  27  24 SW7       29.97S
GRAND MARAIS     N/A     49  39  68 W13       29.96S
G MARAIS ARPRT FAIR      57  18  21 W10G17    29.97R
$$
MNZ029>031-032-039>041-046>048-054>057-064-191900-
   West Central Minnesota

CITY           SKY/WX    TMP DP  RH WIND       PRES   REMARKS
FERGUS FALLS   FAIR      66  39  37 S20       29.90F
WHEATON        FAIR      70  36  28 S22G29    29.89F
MORRIS         FAIR      72  39  30 S20       29.90F
ALEXANDRIA     FAIR      67  37  33 S20       29.95F
ELBOW LAKE     FAIR      66  40  37 S15       29.92F
WADENA         FAIR      66  37  34 S15G22    29.92F
GLENWOOD       FAIR      66  37  34 S22G28    29.95F
APPLETON       FAIR      73  34  23 S15G23    29.92F
BENSON         FAIR      72  36  26 SW18G26   29.95F
ORTONVILLE     FAIR      70  37  30 NW15G22   29.91F
MADISON        FAIR      73  37  27 S14G20    29.92F
WILLMAR        FAIR      72  36  26 S12       29.98F
$$
MNZ033>034-036-042>043-049>051-058-059-191900-
   Central Minnesota

CITY           SKY/WX    TMP DP  RH WIND       PRES   REMARKS
ST CLOUD       FAIR      66  33  29 S16       30.00F
6HR MIN TEMP:  34; 6HR MAX TEMP:  66;

SAUK CENTRE    FAIR      67  36  32 S18G24    29.97F
PAYNESVILLE    FAIR      67  34  28 S17G25    29.99F
AITKIN         FAIR      63  30  29 S12G17    29.96F
PINE RIVER     FAIR      63  36  36 S10       29.97F
BRAINERD       FAIR      65  32  29 S14       29.97F
STAPLES        FAIR      66  32  28 S13       29.94F
LONG PRAIRIE   FAIR      64  34  32 SE21G28   29.96F
LITTLE FALLS   FAIR      64  19  17 S12G20    29.98F
LITCHFIELD     FAIR      70  36  28 SE5       30.01F
BUFFALO        FAIR      66  31  27 S12G18    30.03F
MAPLE LAKE     FAIR      68  36  30 S7G22     30.02F
HUTCHINSON     FAIR      68  35  30 S13       30.02F
$$
MNZ037-044-045-052-053-191900-
   East Central Minnesota

CITY           SKY/WX    TMP DP  RH WIND       PRES   REMARKS
PRINCETON      FAIR      66  34  30 S9        30.01F
MORA           FAIR      64  34  32 S9        30.02F
CAMBRIDGE      FAIR      70  43  37 S15       30.01F
RUSH CITY      FAIR      65  32  28 S9        30.02F
MOOSE LAKE     FAIR      63  34  34 SW9       29.99F
HINCKLEY       FAIR      63  34  34 S9        30.01F
CLOQUET        FAIR      63  25  23 S13       29.99F
MCGREGOR       FAIR      64  32  29 S13       29.98F
$$
MNZ071>073-080-081-089-090-097-098-191900-
   Southwest Minnesota

CITY           SKY/WX    TMP DP  RH WIND       PRES   REMARKS
MONTEVIDEO     FAIR      72  37  28 SW15G22   29.95F
GRANITE FALLS  FAIR      71  39  31 S17G28    29.98F
CANBY          FAIR      72  39  30 S15G21    29.94F
MARSHALL       FAIR      71  40  32 S25       29.96F
REDWOOD FALLS  FAIR      69  33  26 S21       30.00F
OLIVIA         FAIR      70  36  28 S20G28    29.98F
PIPESTONE      FAIR      68  43  40 SW18G26   29.99F
WORTHINGTON    FAIR      69  41  36 S16G23    30.04F
JACKSON        FAIR      68  34  28 S16G24    30.06F
TRACY          FAIR      69  41  35 S16G26    29.99F
SLAYTON        FAIR      70  20  15 S17G23    30.02F
$$
MNZ065>067-074>077-082>085-091>093-191900-
   South Central Minnesota

CITY           SKY/WX    TMP DP  RH WIND       PRES   REMARKS
MANKATO        FAIR      69  32  25 S13G20    30.05F
NEW ULM        FAIR      68  34  28 S20G25    30.02F
ST JAMES       FAIR      68  34  28 S18       30.05F
FAIRMONT       FAIR      66  34  30 S21G29    30.06F
GLENCOE        FAIR      69  32  25 S12G18    30.02F
FARIBAULT      FAIR      68  34  28 S10G20    30.06F
OWATONNA       FAIR      68  36  30 S14G22    30.07F
WASECA         FAIR      70  32  24 S13       30.08F
$$
MNZ078>079-086>088-094>096-191900-
   Southeast Minnesota

CITY           SKY/WX    TMP DP  RH WIND       PRES   REMARKS
ROCHESTER      FAIR      67  34  29 S15       30.10F
6HR MIN TEMP:  37; 6HR MAX TEMP:  68;

RED WING       FAIR      66  34  30 SE6       30.05F
STANTON        FAIR      71  31  23 S10G16    30.05F
DODGE CENTER   FAIR      66  28  24 S15       30.09F
WINONA         FAIR      68  39  34 SE6       30.10F
AUSTIN         FAIR      66  32  28 S9        30.09F
PRESTON        FAIR      66  33  29 S9        30.12F
$$
ABBREVIATIONS USED IN REMARKS
   TC - TEMPERATURES IN CELSIUS
  WCI - WIND CHILL INDEX
   HX - HEAT INDEX
  VSB - VISIBILITY
$$




USA.gov is the U.S. government's official web portal to all federal, state and local government web resources and services.